• în Republica Moldova
  • Lista ţărilor
  • Pe 7 zile
  • Temperatura apei
  • Hartă satelitară
  • Meteo pe hartă
  • Widget-uri
  • user-avatar
    Intrare

    Meteo pe oră la Adelaide

    Astăzi, 20 Octombrie, Vineri

    Timp Temperatura Precipitaţii Vânt Presiune Umiditate
    00:00 +12°C° 0 mm 4 m/s 767 mmHg 77%
    01:00 +11°C° 0 mm 4 m/s 767 mmHg 78%
    02:00 +11°C° 0 mm 4 m/s 767 mmHg 78%
    03:00 +11°C° 0 mm 3 m/s 767 mmHg 79%
    04:00 +11°C° 0 mm 4 m/s 767 mmHg 77%
    05:00 +12°C° 0 mm 4 m/s 768 mmHg 75%
    06:00 +12°C° 0 mm 4 m/s 768 mmHg 73%
    07:00 +14°C° 0 mm 5 m/s 769 mmHg 65%
    08:00 +15°C° 0 mm 5 m/s 769 mmHg 57%
    09:00 +18°C° 0 mm 4 m/s 769 mmHg 49%
    10:00 +17°C° 0 mm 5 m/s 769 mmHg 46%
    11:00 +19°C° 0 mm 5 m/s 769 mmHg 43%
    12:00 +20°C° 0 mm 6 m/s 768 mmHg 40%
    13:00 +20°C° 0 mm 6 m/s 768 mmHg 42%
    14:00 +19°C° 0 mm 6 m/s 768 mmHg 43%
    15:00 +18°C° 0 mm 7 m/s 768 mmHg 44%
    16:00 +16°C° 0 mm 7 m/s 768 mmHg 51%
    17:00 +15°C° 0 mm 6 m/s 768 mmHg 57%
    18:00 +13°C° 0 mm 6 m/s 768 mmHg 64%
    19:00 +11°C° 0 mm 6 m/s 769 mmHg 69%
    20:00 +10°C° 0 mm 5 m/s 769 mmHg 75%
    21:00 +9°C° 0 mm 5 m/s 770 mmHg 80%
    22:00 +10°C° 0 mm 4 m/s 769 mmHg 82%
    23:00 +8°C° 0 mm 4 m/s 769 mmHg 83%

    Mâine, 21 Octombrie, Sâmbătă

    Timp Temperatura Precipitaţii Vânt Presiune Umiditate
    00:00 +8°C° 0 mm 4 m/s 769 mmHg 85%
    01:00 +9°C° 0 mm 3 m/s 769 mmHg 86%
    02:00 +9°C° 0 mm 3 m/s 768 mmHg 86%
    03:00 +8°C° 0 mm 3 m/s 768 mmHg 87%
    04:00 +9°C° 0 mm 3 m/s 768 mmHg 86%
    05:00 +9°C° 0 mm 3 m/s 768 mmHg 85%
    06:00 +10°C° 0 mm 3 m/s 768 mmHg 84%
    07:00 +12°C° 0 mm 3 m/s 768 mmHg 74%
    08:00 +14°C° 0 mm 4 m/s 768 mmHg 65%
    09:00 +17°C° 0 mm 4 m/s 768 mmHg 55%
    10:00 +18°C° 0 mm 4 m/s 768 mmHg 52%
    11:00 +19°C° 0 mm 5 m/s 767 mmHg 49%
    12:00 +20°C° 0 mm 5 m/s 767 mmHg 47%
    13:00 +19°C° 0 mm 6 m/s 766 mmHg 48%
    14:00 +19°C° 0 mm 6 m/s 766 mmHg 50%
    15:00 +19°C° 0 mm 6 m/s 765 mmHg 52%
    16:00 +16°C° 0 mm 6 m/s 765 mmHg 58%
    17:00 +14°C° 0 mm 5 m/s 765 mmHg 65%
    18:00 +13°C° 0 mm 5 m/s 765 mmHg 71%
    19:00 +12°C° 0 mm 5 m/s 765 mmHg 75%
    20:00 +11°C° 0 mm 4 m/s 765 mmHg 79%
    21:00 +11°C° 0 mm 4 m/s 765 mmHg 83%
    22:00 +11°C° 0 mm 4 m/s 765 mmHg 83%
    23:00 +10°C° 0 mm 4 m/s 765 mmHg 83%

    Poimâine, 22 Octombrie, Duminică

    Timp Temperatura Precipitaţii Vânt Presiune Umiditate
    00:00 +10°C° 0 mm 4 m/s 764 mmHg 82%
    01:00 +10°C° 0 mm 3 m/s 764 mmHg 83%
    02:00 +10°C° 0 mm 3 m/s 764 mmHg 83%
    03:00 +10°C° 0 mm 3 m/s 763 mmHg 83%
    04:00 +10°C° 0 mm 3 m/s 763 mmHg 82%
    05:00 +11°C° 0 mm 3 m/s 763 mmHg 81%
    06:00 +11°C° 0 mm 3 m/s 764 mmHg 80%
    07:00 +13°C° 0 mm 3 m/s 763 mmHg 74%
    08:00 +14°C° 0 mm 3 m/s 763 mmHg 68%
    09:00 +16°C° 0 mm 3 m/s 763 mmHg 61%
    10:00 +17°C° 0 mm 4 m/s 763 mmHg 60%
    11:00 +17°C° 0 mm 4 m/s 763 mmHg 60%
    12:00 +18°C° 0 mm 4 m/s 763 mmHg 59%
    13:00 +18°C° 0 mm 4 m/s 762 mmHg 60%
    14:00 +17°C° 0 mm 5 m/s 762 mmHg 60%
    15:00 +17°C° 0 mm 5 m/s 761 mmHg 61%
    16:00 +17°C° 0 mm 4 m/s 761 mmHg 65%
    17:00 +15°C° 0 mm 4 m/s 761 mmHg 69%
    18:00 +14°C° 0 mm 4 m/s 761 mmHg 74%
    19:00 +13°C° 0 mm 3 m/s 762 mmHg 78%
    20:00 +12°C° 0 mm 3 m/s 762 mmHg 83%
    21:00 +12°C° 0 mm 3 m/s 762 mmHg 88%
    22:00 +12°C° 0 mm 2 m/s 762 mmHg 89%
    23:00 +12°C° 0 mm 2 m/s 762 mmHg 90%

    23 Octombrie, Luni

    Timp Temperatura Precipitaţii Vânt Presiune Umiditate
    00:00 +12°C° 0 mm 2 m/s 761 mmHg 91%
    01:00 +12°C° 0 mm 2 m/s 761 mmHg 92%
    02:00 +12°C° 0 mm 2 m/s 761 mmHg 92%
    03:00 +12°C° 0 mm 2 m/s 760 mmHg 92%
    04:00 +12°C° 0 mm 1 m/s 761 mmHg 90%
    05:00 +13°C° 0 mm 1 m/s 761 mmHg 89%
    06:00 +13°C° 0 mm 1 m/s 761 mmHg 87%
    07:00 +15°C° 0 mm 1 m/s 761 mmHg 78%
    08:00 +18°C° 0 mm 1 m/s 761 mmHg 69%
    09:00 +20°C° 0 mm 1 m/s 761 mmHg 60%
    10:00 +21°C° 0 mm 1 m/s 761 mmHg 57%
    11:00 +22°C° 0 mm 1 m/s 760 mmHg 54%
    12:00 +23°C° 0 mm 1 m/s 760 mmHg 51%
    13:00 +23°C° 0 mm 2 m/s 759 mmHg 50%
    14:00 +23°C° 0 mm 2 m/s 759 mmHg 50%
    15:00 +22°C° 0 mm 3 m/s 758 mmHg 49%
    16:00 +21°C° 0 mm 3 m/s 758 mmHg 55%
    17:00 +19°C° 0 mm 3 m/s 759 mmHg 61%
    18:00 +18°C° 0 mm 3 m/s 759 mmHg 67%
    19:00 +17°C° 0 mm 3 m/s 759 mmHg 71%
    20:00 +16°C° 0 mm 3 m/s 759 mmHg 76%
    21:00 +14°C° 0 mm 3 m/s 759 mmHg 81%
    22:00 +14°C° 0 mm 3 m/s 759 mmHg 80%
    23:00 +13°C° 0 mm 3 m/s 758 mmHg 80%

    24 Octombrie, Marţi

    Timp Temperatura Precipitaţii Vânt Presiune Umiditate
    00:00 +13°C° 0 mm 3 m/s 758 mmHg 80%
    01:00 +13°C° 0 mm 3 m/s 758 mmHg 80%
    02:00 +13°C° 0 mm 3 m/s 757 mmHg 79%
    03:00 +13°C° 0 mm 4 m/s 757 mmHg 78%
    04:00 +14°C° 0 mm 4 m/s 757 mmHg 77%
    05:00 +14°C° 0 mm 3 m/s 757 mmHg 76%
    06:00 +14°C° 0 mm 3 m/s 757 mmHg 74%
    07:00 +18°C° 0 mm 3 m/s 757 mmHg 65%
    08:00 +20°C° 0 mm 3 m/s 757 mmHg 55%
    09:00 +24°C° 0 mm 3 m/s 757 mmHg 46%
    10:00 +25°C° 0 mm 3 m/s 756 mmHg 41%
    11:00 +26°C° 0 mm 3 m/s 756 mmHg 36%
    12:00 +28°C° 0 mm 3 m/s 755 mmHg 31%
    13:00 +28°C° 0 mm 3 m/s 754 mmHg 30%
    14:00 +29°C° 0 mm 3 m/s 753 mmHg 29%
    15:00 +29°C° 0 mm 3 m/s 752 mmHg 28%
    16:00 +28°C° 0 mm 4 m/s 752 mmHg 30%
    17:00 +27°C° 0 mm 5 m/s 751 mmHg 33%
    18:00 +26°C° 0 mm 5 m/s 751 mmHg 36%
    19:00 +26°C° 0 mm 5 m/s 751 mmHg 36%
    20:00 +25°C° 0 mm 5 m/s 751 mmHg 37%
    21:00 +25°C° 0 mm 5 m/s 751 mmHg 38%
    22:00 +22°C° 0 mm 5 m/s 751 mmHg 45%
    23:00 +21°C° 0 mm 5 m/s 750 mmHg 52%

    25 Octombrie, Miercuri

    Timp Temperatura Precipitaţii Vânt Presiune Umiditate
    00:00 +19°C° 0 mm 5 m/s 750 mmHg 59%
    01:00 +17°C° 0 mm 5 m/s 750 mmHg 69%
    02:00 +16°C° 0 mm 5 m/s 750 mmHg 78%
    03:00 +15°C° 0 mm 5 m/s 749 mmHg 88%
    04:00 +15°C° 0 mm 5 m/s 750 mmHg 87%
    05:00 +16°C° 0 mm 5 m/s 750 mmHg 86%
    06:00 +16°C° 0 mm 6 m/s 750 mmHg 86%
    07:00 +17°C° 0 mm 6 m/s 751 mmHg 78%
    08:00 +20°C° 0 mm 6 m/s 751 mmHg 71%
    09:00 +21°C° 0 mm 6 m/s 752 mmHg 63%
    10:00 +22°C° 0 mm 6 m/s 752 mmHg 60%
    11:00 +23°C° 0 mm 7 m/s 752 mmHg 56%
    12:00 +23°C° 0 mm 7 m/s 752 mmHg 53%
    13:00 +23°C° 0 mm 7 m/s 752 mmHg 53%
    14:00 +23°C° 0 mm 7 m/s 752 mmHg 53%
    15:00 +23°C° 0 mm 7 m/s 752 mmHg 54%
    16:00 +21°C° 0 mm 6 m/s 753 mmHg 60%
    17:00 +20°C° 0 mm 5 m/s 753 mmHg 66%
    18:00 +17°C° 0 mm 5 m/s 754 mmHg 72%
    19:00 +17°C° 0 mm 4 m/s 755 mmHg 77%
    20:00 +15°C° 0 mm 4 m/s 755 mmHg 82%
    21:00 +14°C° 0 mm 4 m/s 756 mmHg 87%
    22:00 +14°C° 0 mm 4 m/s 756 mmHg 86%
    23:00 +14°C° 0 mm 4 m/s 756 mmHg 85%
    Arată mai mult